FW2664 Weather Reports


Display with metric or nautical units.
time (UTC)temp
F
wind
direction
speed
MPH
gust
MPH
rain 1hr
in
rain 24hr
in
rain mn
in
humidity
%
barometer
mb
20260901081508 75 74 1.0 2.0 0.00 0.00 0.00 95 1016.9
20260901081003 75 74 2.0 2.0 0.00 0.00 0.00 95 1016.9
20260901080502 75 81 2.0 2.0 0.00 0.00 0.00 95 1017.2
20260901080001 75 79 0.0 2.0 0.00 0.00 0.00 95 1016.8
20260901075457 75 82 0.0 2.0 0.00 0.00 0.00 95 1017.1
20260901074956 75 69 1.0 2.0 0.00 0.00 0.00 95 1016.9
20260901074451 75 51 1.0 2.0 0.00 0.00 0.00 95 1016.9
20260901073946 75 84 1.0 2.0 0.00 0.00 0.00 94 1016.9
20260901073443 75 60 0.0 2.0 0.00 0.00 0.00 94 1017.0
20260901072943 75 59 0.0 2.0 0.00 0.00 0.00 94 1017.0
20260901072438 75 56 2.0 2.0 0.00 0.00 0.00 94 1017.0
20260901071933 75 53 1.0 2.0 0.00 0.00 0.00 94 1017.0
20260901071432 75 81 0.0 2.0 0.00 0.00 0.00 94 1017.0
20260901070931 76 62 2.0 2.0 0.00 0.00 0.00 94 1016.9
20260901070427 76 89 0.0 2.0 0.00 0.00 0.00 94 1017.1
20260901065925 76 71 1.0 2.0 0.00 0.00 0.00 94 1017.1
20260901065421 76 67 1.0 2.0 0.00 0.00 0.00 93 1017.2
20260901064916 76 65 1.0 1.0 0.00 0.00 0.00 94 1017.0
20260901064412 76 82 0.0 2.0 0.00 0.00 0.00 93 1017.0
20260901063909 76 59 1.0 2.0 0.00 0.00 0.00 93 1017.1
20260901063406 76 74 0.0 2.0 0.00 0.00 0.00 93 1017.1
20260901062902 76 60 0.0 2.0 0.00 0.00 0.00 93 1016.9
20260901061853 76 54 0.0 2.0 0.00 0.00 0.00 92 1017.2
20260901061348 76 70 0.0 2.0 0.00 0.00 0.00 92 1017.0
20260901060843 76 74 1.0 2.0 0.00 0.00 0.00 92 1017.2
20260901060340 76 56 2.0 3.0 0.00 0.00 0.00 92 1017.2
20260901055838 76 75 1.0 2.0 0.00 0.00 0.00 92 1017.2
20260901055335 76 95 1.0 3.0 0.00 0.00 0.00 92 1017.1
20260901054831 76 64 1.0 2.0 0.00 0.00 0.00 91 1017.1
20260901054329 76 61 0.0 2.0 0.00 0.00 0.00 91 1017.1
20260901053824 76 108 0.0 2.0 0.00 0.00 0.00 90 1017.1
20260901053319 76 88 1.0 2.0 0.00 0.00 0.00 90 1017.1
20260901052814 76 62 0.0 2.0 0.00 0.00 0.00 89 1017.1
20260901052310 77 71 2.0 2.0 0.00 0.00 0.00 89 1017.1
20260901051808 77 58 0.0 2.0 0.00 0.00 0.00 89 1017.4
20260901051304 77 34 0.0 2.0 0.00 0.00 0.00 88 1017.2
20260901050759 77 51 1.0 2.0 0.00 0.00 0.00 88 1017.1
20260901050254 77 56 2.0 2.0 0.00 0.00 0.00 88 1017.3
20260901045750 77 37 0.0 2.0 0.00 0.00 0.00 87 1017.0
20260901045244 77 79 1.0 2.0 0.00 0.00 0.00 87 1017.2
20260901044740 77 74 0.0 2.0 0.00 0.00 0.00 87 1017.1
20260901044236 77 59 0.0 2.0 0.00 0.00 0.00 87 1017.2
20260901043731 77 62 1.0 3.0 0.00 0.00 0.00 86 1017.1
20260901043226 77 84 0.0 2.0 0.00 0.00 0.00 86 1017.2
20260901042726 77 60 0.0 2.0 0.00 0.00 0.00 86 1017.1
20260901042220 77 59 1.0 2.0 0.00 0.00 0.00 85 1017.0
20260901041717 78 78 2.0 2.0 0.00 0.00 0.00 85 1017.0
20260901041216 78 53 0.0 2.0 0.00 0.00 0.00 85 1017.0
20260901040711 78 49 0.0 2.0 0.00 0.00 0.00 84 1017.0
20260901040210 78 77 0.0 2.0 0.00 0.00 0.00 84 1017.1
20260901035708 78 74 0.0 2.0 0.00 0.00 0.00 84 1017.2
20260901035208 78 60 1.0 2.0 0.00 0.00 0.00 83 1017.2
20260901034707 78 49 1.0 2.0 0.00 0.00 0.00 83 1017.0
20260901034202 78 55 1.0 2.0 0.00 0.00 0.00 82 1016.9
20260901033701 78 57 2.0 2.0 0.00 0.00 0.00 83 1017.0
20260901033155 78 62 1.0 2.0 0.00 0.00 0.00 82 1016.9
20260901032654 79 67 0.0 2.0 0.00 0.00 0.00 82 1016.9
20260901032148 79 92 0.0 2.0 0.00 0.00 0.00 81 1016.8
20260901031644 79 76 1.0 2.0 0.00 0.00 0.00 81 1016.7
20260901031140 79 45 1.0 2.0 0.00 0.00 0.00 81 1016.8
20260901030634 79 50 0.0 2.0 0.00 0.00 0.00 80 1016.9
20260901030129 79 78 0.0 2.0 0.00 0.00 0.00 80 1016.9
20260901025629 79 51 1.0 2.0 0.00 0.00 0.00 79 1016.8
20260901025125 80 60 0.0 2.0 0.00 0.00 0.00 78 1016.8
20260901024624 80 82 2.0 2.0 0.00 0.00 0.00 78 1016.8
20260901024123 80 62 1.0 2.0 0.00 0.00 0.00 78 1016.6
20260901023622 80 68 0.0 2.0 0.00 0.00 0.00 78 1016.6
20260901023117 80 49 0.0 1.0 0.00 0.00 0.00 79 1016.8
20260901022613 80 80 1.0 2.0 0.00 0.00 0.00 77 1016.6
20260901022108 80 81 1.0 2.0 0.00 0.00 0.00 77 1016.7
20260901021603 80 61 0.0 2.0 0.00 0.00 0.00 76 1016.4
20260901021058 81 84 0.0 2.0 0.00 0.00 0.00 76 1016.4
20260901020554 81 71 0.0 2.0 0.00 0.00 0.00 75 1016.3
20260901020049 81 74 0.0 2.0 0.00 0.00 0.00 75 1016.4
20260901015544 81 66 0.0 2.0 0.00 0.00 0.00 74 1016.3
20260901015044 82 19 0.0 2.0 0.00 0.00 0.00 74 1016.3
20260901014539 82 60 1.0 2.0 0.00 0.00 0.00 73 1016.3
20260901014035 82 72 0.0 2.0 0.00 0.00 0.00 72 1016.4
20260901013531 82 87 0.0 2.0 0.00 0.00 0.00 72 1016.2
20260901013027 82 89 0.0 1.0 0.00 0.00 0.00 71 1016.1
20260901012526 82 50 1.0 2.0 0.00 0.00 0.00 71 1016.0
20260901012022 83 68 1.0 2.0 0.00 0.00 0.00 71 1016.0
20260901011518 83 65 0.0 2.0 0.00 0.00 0.00 71 1016.0
20260901011015 83 301 0.0 2.0 0.00 0.00 0.00 72 1016.0
20260901010511 83 60 1.0 2.0 0.00 0.00 0.00 70 1016.1
20260901010011 83 70 1.0 2.0 0.00 0.00 0.00 70 1016.0
20260901005510 84 99 0.0 2.0 0.00 0.00 0.00 69 1015.7
20260901005006 84 56 1.0 2.0 0.00 0.00 0.00 69 1015.8
20260901004505 84 51 0.0 2.0 0.00 0.00 0.00 67 1015.7
20260901004000 85 61 0.0 2.0 0.00 0.00 0.00 67 1015.8
20260901003455 85 63 0.0 2.0 0.00 0.00 0.00 68 1015.7
20260901002954 86 74 0.0 2.0 0.00 0.00 0.00 65 1015.8
20260901002453 86 70 1.0 2.0 0.00 0.00 0.00 64 1015.8
20260901001948 87 108 0.0 2.0 0.00 0.00 0.00 63 1015.8
20260901001443 87 79 0.0 2.0 0.00 0.00 0.00 62 1015.7
20260901000938 87 75 0.0 2.0 0.00 0.00 0.00 61 1015.7
20260901000435 88 62 0.0 2.0 0.00 0.00 0.00 60 1015.8
20260831235932 88 61 1.0 1.0 0.00 0.00 0.00 59 1016.0
20260831235428 89 61 0.0 1.0 0.00 0.00 0.00 57 1015.8
20260831234924 90 89 0.0 1.0 0.00 0.00 0.00 56 1015.9
20260831234423 90 24 1.0 2.0 0.00 0.00 0.00 56 1015.9
20260831233919 91 89 0.0 1.0 0.00 0.00 0.00 59 1016.0
20260831233414 91 44 0.0 2.0 0.00 0.00 0.00 53 1015.9
20260831232909 91 79 0.0 2.0 0.00 0.00 0.00 53 1016.2
20260831232405 92 57 0.0 2.0 0.00 0.00 0.00 53 1016.1
20260831231901 92 53 0.0 1.0 0.00 0.00 0.00 54 1016.2
20260831231357 93 160 0.0 1.0 0.00 0.00 0.00 51 1016.1
20260831230852 93 99 0.0 1.0 0.00 0.00 0.00 48 1016.1
20260831230347 93 89 0.0 1.0 0.00 0.00 0.00 49 1016.1
20260831225841 94 269 0.0 2.0 0.00 0.00 0.00 45 1016.3
20260831225336 94 317 0.0 2.0 0.00 0.00 0.00 45 1016.2
20260831224831 94 250 0.0 2.0 0.00 0.00 0.00 44 1016.3
20260831224326 94 135 0.0 2.0 0.00 0.00 0.00 47 1016.3
20260831223821 95 31 1.0 2.0 0.00 0.00 0.00 45 1016.3
20260831223317 95 82 1.0 2.0 0.00 0.00 0.00 44 1016.2
20260831222814 96 41 0.0 2.0 0.00 0.00 0.00 42 1016.2
20260831222309 98 293 0.0 1.0 0.00 0.00 0.00 41 1016.4
20260831221804 98 245 0.0 2.0 0.00 0.00 0.00 40 1016.5
20260831221301 99 280 3.0 3.0 0.00 0.00 0.00 41 1016.4
20260831220800 99 269 0.0 1.0 0.00 0.00 0.00 41 1016.4
20260831220255 99 319 0.0 2.0 0.00 0.00 0.00 41 1016.3
20260831215749 98 269 1.0 2.0 0.00 0.00 0.00 43 1016.4
20260831215246 99 132 2.0 2.0 0.00 0.00 0.00 39 1016.5
20260831214742 98 324 1.0 1.0 0.00 0.00 0.00 41 1016.5
20260831214239 99 250 0.0 2.0 0.00 0.00 0.00 39 1016.4
20260831213735 98 114 0.0 2.0 0.00 0.00 0.00 40 1016.5
20260831213231 98 191 0.0 3.0 0.00 0.00 0.00 40 1016.5
20260831212726 98 95 0.0 3.0 0.00 0.00 0.00 41 1016.5
20260831212223 98 234 0.0 4.0 0.00 0.00 0.00 43 1016.7
20260831211721 98 271 2.0 2.0 0.00 0.00 0.00 42 1016.7
20260831211217 99 221 1.0 3.0 0.00 0.00 0.00 41 1016.8
20260831210716 98 245 0.0 2.0 0.00 0.00 0.00 41 1016.7
20260831210213 99 251 0.0 2.0 0.00 0.00 0.00 41 1016.8
20260831205712 99 148 2.0 3.0 0.00 0.00 0.00 42 1017.0
20260831205208 99 276 0.0 3.0 0.00 0.00 0.00 43 1016.6
20260831204703 99 256 0.0 2.0 0.00 0.00 0.00 44 1016.8
20260831204202 98 129 0.0 2.0 0.00 0.00 0.00 42 1016.8
20260831203701 97 241 3.0 3.0 0.00 0.00 0.00 44 1016.9
20260831203155 97 103 2.0 2.0 0.00 0.00 0.00 43 1016.8
20260831202654 97 332 1.0 2.0 0.00 0.00 0.00 43 1016.9
20260831202149 97 0 2.0 2.0 0.00 0.00 0.00 44 1017.0
20260831201648 97 331 0.0 2.0 0.00 0.00 0.00 44 1017.1
20260831201143 97 102 0.0 2.0 0.00 0.00 0.00 42 1017.1
20260831200639 98 340 1.0 2.0 0.00 0.00 0.00 41 1017.2
20260831200138 98 307 0.0 2.0 0.00 0.00 0.00 45 1017.2
20260831195634 97 106 1.0 2.0 0.00 0.00 0.00 41 1017.3
20260831195129 97 205 0.0 2.0 0.00 0.00 0.00 44 1017.4
20260831194624 97 103 1.0 2.0 0.00 0.00 0.00 45 1017.5
20260831194119 97 157 0.0 2.0 0.00 0.00 0.00 47 1017.5
20260831193614 97 240 0.0 5.0 0.00 0.00 0.00 46 1017.6
20260831193109 96 336 0.0 4.0 0.00 0.00 0.00 45 1017.8
20260831192604 97 328 1.0 3.0 0.00 0.00 0.00 44 1017.8
20260831192059 98 202 2.0 2.0 0.00 0.00 0.00 43 1017.8
20260831191555 98 315 0.0 3.0 0.00 0.00 0.00 43 1017.8
20260831191051 97 73 0.0 2.0 0.00 0.00 0.00 45 1017.6
20260831190546 97 129 0.0 2.0 0.00 0.00 0.00 45 1017.9
20260831190044 96 88 1.0 3.0 0.00 0.00 0.00 45 1017.9
20260831185540 96 129 3.0 3.0 0.00 0.00 0.00 45 1018.0
20260831185036 96 135 3.0 3.0 0.00 0.00 0.00 44 1018.0
20260831184535 96 113 1.0 3.0 0.00 0.00 0.00 44 1018.0
20260831184031 95 308 1.0 3.0 0.00 0.00 0.00 50 1018.0
20260831183530 95 135 1.0 4.0 0.00 0.00 0.00 47 1018.1
20260831183025 96 220 4.0 4.0 0.00 0.00 0.00 47 1018.1
20260831182525 96 285 2.0 3.0 0.00 0.00 0.00 50 1018.4
20260831182020 95 235 2.0 3.0 0.00 0.00 0.00 48 1018.4
20260831181515 95 345 2.0 3.0 0.00 0.00 0.00 47 1018.4
20260831181015 95 121 1.0 4.0 0.00 0.00 0.00 47 1018.4
20260831180515 95 206 0.0 2.0 0.00 0.00 0.00 48 1018.6
20260831180010 96 86 0.0 2.0 0.00 0.00 0.00 47 1018.5
20260831175506 95 276 0.0 3.0 0.00 0.00 0.00 47 1018.6
20260831175001 94 278 1.0 3.0 0.00 0.00 0.00 47 1018.7
20260831174456 95 286 2.0 4.0 0.00 0.00 0.00 49 1018.9
20260831173956 94 226 0.0 4.0 0.00 0.00 0.00 52 1019.0
20260831173454 94 19 0.0 2.0 0.00 0.00 0.00 49 1018.9
20260831172951 95 14 1.0 2.0 0.00 0.00 0.00 51 1019.0
20260831172447 95 249 0.0 3.0 0.00 0.00 0.00 56 1019.1
20260831171942 94 139 2.0 4.0 0.00 0.00 0.00 51 1019.1
20260831171437 94 232 2.0 4.0 0.00 0.00 0.00 50 1019.1
20260831170934 95 232 1.0 3.0 0.00 0.00 0.00 50 1019.2
20260831170430 95 266 3.0 4.0 0.00 0.00 0.00 49 1019.3
20260831165926 95 153 1.0 3.0 0.00 0.00 0.00 53 1019.4
20260831165422 95 316 1.0 3.0 0.00 0.00 0.00 53 1019.3
20260831164918 95 255 0.0 2.0 0.00 0.00 0.00 52 1019.5
20260831164414 94 104 0.0 2.0 0.00 0.00 0.00 54 1019.4
20260831163909 95 271 3.0 5.0 0.00 0.00 0.00 54 1019.6
20260831163405 95 269 1.0 2.0 0.00 0.00 0.00 55 1019.7
20260831162903 94 312 2.0 2.0 0.00 0.00 0.00 52 1019.5
20260831162359 95 336 1.0 2.0 0.00 0.00 0.00 50 1019.5
20260831161857 94 261 0.0 2.0 0.00 0.00 0.00 53 1019.5
20260831161354 93 267 1.0 3.0 0.00 0.00 0.00 55 1019.6
20260831160854 92 217 0.0 4.0 0.00 0.00 0.00 55 1019.7
20260831160349 94 120 1.0 4.0 0.00 0.00 0.00 53 1019.5
20260831155844 93 22 0.0 2.0 0.00 0.00 0.00 57 1019.6
20260831155343 92 297 1.0 3.0 0.00 0.00 0.00 58 1019.6
20260831154840 93 317 2.0 2.0 0.00 0.00 0.00 57 1019.8
20260831154336 93 134 0.0 3.0 0.00 0.00 0.00 55 1019.7
20260831153834 93 183 2.0 2.0 0.00 0.00 0.00 56 1019.6
20260831153330 92 215 0.0 3.0 0.00 0.00 0.00 57 1019.7
20260831152826 91 144 2.0 2.0 0.00 0.00 0.00 58 1019.7
20260831152322 92 326 0.0 3.0 0.00 0.00 0.00 59 1019.7
20260831151817 93 116 0.0 2.0 0.00 0.00 0.00 58 1019.6
20260831151316 92 269 0.0 2.0 0.00 0.00 0.00 57 1019.7
20260831150812 92 335 2.0 2.0 0.00 0.00 0.00 58 1019.7
20260831150307 91 142 1.0 3.0 0.00 0.00 0.00 58 1019.8
20260831145806 90 85 0.0 3.0 0.00 0.00 0.00 61 1020.0
20260831145306 89 146 0.0 2.0 0.00 0.00 0.00 62 1019.6
20260831144758 89 221 0.0 2.0 0.00 0.00 0.00 62 1019.5
20260831144254 89 145 0.0 2.0 0.00 0.00 0.00 64 1019.2
20260831143753 89 229 0.0 2.0 0.00 0.00 0.00 64 1019.3
20260831143248 89 278 2.0 3.0 0.00 0.00 0.00 62 1019.5
20260831142744 88 129 1.0 2.0 0.00 0.00 0.00 64 1019.4
20260831142240 87 230 0.0 2.0 0.00 0.00 0.00 66 1019.2
20260831141739 87 282 0.0 2.0 0.00 0.00 0.00 66 1019.5
20260831141234 87 296 1.0 2.0 0.00 0.00 0.00 66 1019.3
20260831140734 87 287 0.0 2.0 0.00 0.00 0.00 67 1019.3
20260831140228 87 254 0.0 2.0 0.00 0.00 0.00 65 1019.3
20260831135726 86 66 0.0 2.0 0.00 0.00 0.00 66 1019.3
20260831135222 86 70 2.0 3.0 0.00 0.00 0.00 66 1019.3
20260831134717 85 88 0.0 2.0 0.00 0.00 0.00 68 1019.3
20260831134214 86 232 1.0 3.0 0.00 0.00 0.00 67 1019.2
20260831133712 85 96 2.0 2.0 0.00 0.00 0.00 69 1019.2
20260831133207 85 160 1.0 2.0 0.00 0.00 0.00 69 1019.2
20260831132703 85 116 2.0 2.0 0.00 0.00 0.00 68 1019.2
20260831132203 86 86 0.0 2.0 0.00 0.00 0.00 67 1019.2
20260831131702 86 112 1.0 2.0 0.00 0.00 0.00 67 1019.3
20260831131159 86 132 0.0 3.0 0.00 0.00 0.00 67 1019.1
20260831130654 86 76 0.0 2.0 0.00 0.00 0.00 67 1019.0
20260831130150 86 125 2.0 2.0 0.00 0.00 0.00 66 1019.1
20260831125648 86 89 0.0 2.0 0.00 0.00 0.00 68 1019.0
20260831125144 84 61 0.0 2.0 0.00 0.00 0.00 70 1019.1
20260831124639 84 63 0.0 2.0 0.00 0.00 0.00 72 1019.2
20260831124136 83 44 0.0 2.0 0.00 0.00 0.00 74 1019.0
20260831123635 82 74 0.0 2.0 0.00 0.00 0.00 77 1019.1
20260831123134 80 64 1.0 2.0 0.00 0.00 0.00 84 1018.9
20260831122634 78 65 0.0 2.0 0.00 0.00 0.00 88 1018.9
20260831122130 76 98 2.0 2.0 0.00 0.00 0.00 92 1018.9
20260831121629 74 69 1.0 2.0 0.00 0.00 0.00 96 1018.8
20260831121126 73 97 1.0 3.0 0.00 0.00 0.00 96 1018.8
20260831120627 73 75 0.0 2.0 0.00 0.00 0.00 96 1018.8
20260831120122 72 84 0.0 2.0 0.00 0.00 0.00 96 1018.7
20260831115618 72 81 1.0 2.0 0.00 0.00 0.00 96 1018.6
20260831115113 72 58 2.0 2.0 0.00 0.00 0.00 96 1018.5
20260831114612 72 89 1.0 2.0 0.00 0.00 0.00 96 1018.6
20260831114107 72 57 2.0 2.0 0.00 0.00 0.00 96 1018.5
20260831113606 72 63 1.0 2.0 0.00 0.00 0.00 96 1018.6
20260831113102 72 46 1.0 2.0 0.00 0.00 0.00 96 1018.6
20260831112600 71 70 1.0 2.0 0.00 0.00 0.00 96 1018.6
20260831112056 71 80 0.0 2.0 0.00 0.00 0.00 96 1018.5
20260831111552 71 78 1.0 2.0 0.00 0.00 0.00 96 1018.6
20260831111048 72 91 0.0 2.0 0.00 0.00 0.00 96 1018.5
20260831110543 71 113 2.0 2.0 0.00 0.00 0.00 96 1018.4
20260831110038 72 75 1.0 2.0 0.00 0.00 0.00 96 1018.3
20260831105537 72 81 1.0 2.0 0.00 0.00 0.00 96 1018.3
20260831105032 72 66 0.0 2.0 0.00 0.00 0.00 96 1018.2
20260831104528 72 61 1.0 2.0 0.00 0.00 0.00 96 1018.1
20260831104024 72 72 1.0 2.0 0.00 0.00 0.00 96 1018.4
20260831103519 72 59 1.0 2.0 0.00 0.00 0.00 96 1018.1
20260831103015 72 46 2.0 2.0 0.00 0.00 0.00 96 1018.1
20260831102514 72 56 2.0 2.0 0.00 0.00 0.00 96 1017.9
20260831102010 72 73 2.0 2.0 0.00 0.00 0.00 96 1017.9
20260831101505 73 74 1.0 2.0 0.00 0.00 0.00 96 1017.6
20260831101001 73 66 1.0 2.0 0.00 0.00 0.00 96 1017.9
20260831100456 73 68 2.0 2.0 0.00 0.00 0.00 96 1017.8
20260831095951 73 71 1.0 2.0 0.00 0.00 0.00 96 1017.9
20260831095451 73 58 1.0 2.0 0.00 0.00 0.00 96 1017.5
20260831094946 73 78 1.0 3.0 0.00 0.00 0.00 96 1017.5
20260831094442 73 61 0.0 2.0 0.00 0.00 0.00 96 1017.3
20260831093937 73 76 0.0 2.0 0.00 0.00 0.00 96 1017.6
20260831093432 73 73 1.0 2.0 0.00 0.00 0.00 96 1017.4
20260831092929 73 94 1.0 2.0 0.00 0.00 0.00 96 1017.5
20260831092425 73 69 1.0 2.0 0.00 0.00 0.00 96 1017.5
20260831091920 74 55 2.0 2.0 0.00 0.00 0.00 96 1017.4
20260831091414 74 64 0.0 2.0 0.00 0.00 0.00 96 1017.5
20260831090909 74 59 1.0 2.0 0.00 0.00 0.00 96 1017.5
20260831090401 74 93 2.0 2.0 0.00 0.00 0.00 96 1017.5
20260831085857 74 70 0.0 2.0 0.00 0.00 0.00 96 1017.3
20260831085356 74 60 0.0 2.0 0.00 0.00 0.00 96 1017.2
20260831084850 73 58 0.0 2.0 0.00 0.00 0.00 96 1017.1
20260831084347 73 84 0.0 2.0 0.00 0.00 0.00 95 1017.1
20260831083843 74 74 2.0 2.0 0.00 0.00 0.00 95 1016.9
20260831083338 74 76 1.0 2.0 0.00 0.00 0.00 95 1017.1
20260831082837 74 86 1.0 2.0 0.00 0.00 0.00 95 1017.0
20260831082331 74 84 2.0 2.0 0.00 0.00 0.00 95 1017.1
20260831081827 74 85 1.0 2.0 0.00 0.00 0.00 95 1017.1